Location: Stockholm
(59.3330°N, 18.0500°E)
Time: 12:46:45
(UTC+01:00)

Envisat - Pass Details

Date: 06 December 2022
Orbit: 763 x 765 km, 98.2° (Epoch: 29 January)

Event Time Altitude Azimuth Distance (km) Brightness Sun altitude
Rises 16:29:06 0° 213° (SSW) 3,227 7.4 -10.9°
Reaches altitude 10° 16:32:07 10° 232° (SW) 2,306 6.9 -11.2°
Maximum altitude 16:35:34 18° 276° (W) 1,812 5.8 -11.6°
Drops below altitude 10° 16:39:03 10° 319° (NW) 2,318 5.7 -12.0°
Sets 16:42:07 0° 338° (NNW) 3,249 6.2 -12.4°
